Regional Weather Roundup
Issued by NWS Upton, NY

Current Version | Previous Version | Graphics & Text | Print | Product List | Glossary Off
Versions: 1 2 3 4 5 6 7 8 9 10 11 12 13 14 15 16 17 18 19 20 21 22 23 24 25 26 27 28 29 30 31 32 33 34 35 36 37 38 39 40 41 42 43 44 45 46 47 48 49 50

000
ASUS41 KOKX 181705
RWROKX

REGIONAL WEATHER ROUNDUP
NATIONAL WEATHER SERVICE NEW YORK NY
100 PM EDT THU SEP 18 2014

NOTE: "FAIR" INDICATES FEW OR NO CLOUDS BELOW 12,000 FEET WITH NO
SIGNIFICANT WEATHER AND/OR OBSTRUCTIONS TO VISIBILITY.

NYZ071-072-176-178-NJZ106-104-181800-
NEW YORK CITY METRO AREA


CITY           SKY/WX    TMP DP  RH WIND       PRES   REMARKS
CENTRAL PARK   SUNNY     73  46  38 CALM      30.02F
LAGUARDIA APRT MOSUNNY   73  46  38 W8        29.99F
KENNEDY INTL   MOSUNNY   73  45  36 N7        30.00F
NEWARK/LIBERTY MOSUNNY   76  47  35 SW6       29.99F
BRNX BOT. GARD   N/A     72  45  37 S7        30.01F
TETERBORO      PTSUNNY   73  46  38 VRB5      29.98F
$$

NYZ177-179-078>081-181800-
LONG ISLAND NEW YORK

CITY           SKY/WX    TMP DP  RH WIND       PRES   REMARKS
FARMINGDALE    MOSUNNY   74  45  35 VRB5      30.00S
ISLIP          MOSUNNY   74  44  34 N10       29.98S
SHIRLEY        SUNNY     74  44  34 N13       30.00S
WESTHAMPTON    SUNNY     74  45  35 N9        30.00F
MONTAUK POINT    N/A     70  49  47 NW6       30.00S
$$

NYZ052-065-067-181800-
HUDSON VALLEY

CITY           SKY/WX    TMP DP  RH WIND       PRES   REMARKS
WHITE PLAINS   MOSUNNY   72  45  37 NW6       30.00S
NEWBURGH       MOSUNNY   68  50  52 CALM      30.02F
MONTGOMERY     PTSUNNY   71  45  39 MISG      30.00F
POUGHKEEPSIE   SUNNY     72  45  37 VRB3      30.00S
ALBANY         PTSUNNY   66  51  58 CALM      30.01F
$$

NJZ001-105-106-008-010-013-015-019>022-104-181800-
NEW JERSEY

CITY           SKY/WX    TMP DP  RH WIND       PRES   REMARKS
NEWARK/LIBERTY MOSUNNY   76  47  35 SW6       29.99F
TETERBORO      PTSUNNY   73  46  38 VRB5      29.98F
CALDWELL       PTSUNNY   73  47  39 NE7       30.00F
MORRISTOWN     MOSUNNY   72  48  43 CALM      30.00F
SOMERVILLE     NOT AVBL
LINDEN         FAIR      77  49  36 CALM      30.01F
SUSSEX         MOSUNNY   70  48  45 CALM      30.01F
ANDOVER          N/A     70  49  47 CALM      30.02S
TRENTON        PTSUNNY   71  51  49 VRB5      30.01S
MILLVILLE      MOSUNNY   73  48  41 CALM      30.01S
ATLANTIC CITY  MOSUNNY   73  50  44 NW7       30.01S
WRIGHTSTOWN    NOT AVBL
TOMS RIVER     PTSUNNY   73  48  40 N5        30.01S
BELMAR         SUNNY     73  46  38 N5        30.01S
$$

PAZ047>061-062-071-181800-
EASTERN PENNSYLVANIA

CITY           SKY/WX    TMP DP  RH WIND       PRES   REMARKS
PHILADELPHIA   PTSUNNY   72  52  49 W7        30.01S
ALLENTOWN      SUNNY     73  47  39 CALM      30.01F
SCRANTON       PTSUNNY   69  46  43 MISG      30.03F
$$

CTZ002-004>006-009-010-012-RIZ004-006-007-MAZ004-011-015-181800-
SOUTHERN NEW ENGLAND
 IN CT

CITY           SKY/WX    TMP DP  RH WIND       PRES   REMARKS
BRADLEY INTL   MOSUNNY   73  49  42 VRB5      29.98F
HARTFORD       SUNNY     70  49  47 SE5       29.99S
DANBURY        SUNNY     69  45  41 W7        30.01F
WTRBRY/OXFORD  NOT AVBL
BRIDGEPORT     SUNNY     74  48  39 SW10G18   29.99F
MERIDEN        MOSUNNY   75  45  34 VRB5      29.99F
NEW HAVEN      MOSUNNY   74  45  35 CALM      29.98F
CHESTER        FAIR      70  46  43 N6        30.00F
GROTON         SUNNY     72  47  40 N9        29.97F
WILLIMANTIC    SUNNY     72  46  39 N12       29.99S

 IN RI

CITY           SKY/WX    TMP DP  RH WIND       PRES   REMARKS
PROVIDENCE     MOSUNNY   74  44  34 N7        29.97F
BLOCK ISLAND   SUNNY     72  48  43 NW7       29.99S
WESTERLY       SUNNY     73  45  36 VRB6      29.98F

 IN MA

CITY           SKY/WX    TMP DP  RH WIND       PRES   REMARKS
BOSTON         MOSUNNY   73  45  36 N6        29.96S
WORCESTER      MOSUNNY   66  46  48 N8G23     29.99F
WESTFIELD      MOSUNNY   71  47  42 W7        29.99S
PROVINCETOWN   SUNNY     66  52  59 NW10      29.97S
NANTUCKET      SUNNY     70  46  42 NW12      29.96S
$$

ANZ330-335-338-340-345-350-353-355-181800-
COASTAL MARINE OBSERVATIONS


STATION/POSITION TIME  SKY/WX   TEMP    WIND        PRES    VSBY  WAVE
                                AIR SEA DIR/SP/G                  HT/PER
                 (UTC)          (F)     (DEG/KT/KT) (MB)    (MI)  (FT/S)
NY HARB ENTRANCE 1700            68 71  290/  6/  8 1016.3          3/13
4S FIRE IS       1700               72                N/A           3/12
23SW MTP         1700                                 N/A           3/11
HUDSON CANYON    1700            67 73  340/ 12/ 14 1015.4          4/13
EXECUTION ROCKS  1700            70 72  140/  4/  6   N/A
WESTERN LI SOUND 1700            69     160/  4/  4   N/A           0
CENTRAL LI SOUND 1600            68 71  290/  6/  8   N/A           1
EASTERN LI SOUND 1600            70 68  310/  6/  8   N/A
ROBBINS REEF     1600            69      90/  5/  5 1014.6
$$


>>>>>>>>>>>>>>>>>>>>>>>>>>>> KEY <<<<<<<<<<<<<<<<<<<<<<<<<<<
>                                                          <
>     SKY/WX - SKY CONDITION/PRESENT WEATHER               <
>     TMP    - TEMPERATURE IN FAHRENHEIT                   <
>     DP     - DEWPOINT IN FAHRENHEIT                      <
>     RH     - RELATIVE HUMIDITY IN PERCENT                <
>     WIND   - DIRECTION AND SPEED IN MPH                  <
>     PRES   - MEAN SEA LEVEL PRESSURE IN INCHES OF HG     <
>     WCI    - WIND CHILL INDEX                            <
>     VSB    - VISIBILITY IN MILES                         <
>     HX     - HEAT INDEX                                  <
>     TC     - TEMPERATURE IN CELSIUS                      <
>     VRB    - VARIABLE WIND DIRECTION                     <
>                                                          <
>>>>>>>>>>>>>>>>>>>>>>>>>>>> KEY <<<<<<<<<<<<<<<<<<<<<<<<<<<





USA.gov is the U.S. government's official web portal to all federal, state and local government web resources and services.